Location: Newark
(45.2500°N, 7.5833°E)
Time: 22:22:00
(UTC+00:00)

Tiros 1 - All Passes

Search period start: 19 January 2020 00:00
Search period end: 29 January 2020 00:00
Orbit: 630 x 664 km, 48.4° (Epoch: 19 January)

Date Brightness Start Highest point End Pass type
(mag) Time Alt. Az. Time Alt. Az. Time Alt. Az.
19 Jan - 13:29:33 10° S 13:33:14 23° SE 13:36:59 10° E daylight
19 Jan - 15:10:14 10° WSW 15:14:58 80° SSE 15:19:47 10° ENE daylight
19 Jan - 16:52:40 10° W 16:57:24 59° N 17:02:10 10° ENE visible
19 Jan - 18:35:08 10° WNW 18:39:57 77° NNE 18:44:47 10° ESE visible
19 Jan - 20:17:32 10° WNW 20:22:00 38° SW 20:26:27 10° SSE visible
20 Jan - 13:54:31 10° SW 13:58:59 44° SSE 14:03:31 10° ENE daylight
20 Jan - 15:36:21 10° W 15:41:05 72° NNW 15:45:53 10° ENE daylight
20 Jan - 17:18:55 10° WNW 17:23:39 61° N 17:28:25 10° E visible
20 Jan - 19:01:14 10° WNW 19:06:01 72° SSW 19:10:49 10° ESE visible
20 Jan - 20:44:12 10° W 20:47:42 20° SW 20:51:12 10° S visible
21 Jan - 12:39:42 10° S 12:43:14 21° SE 12:46:49 10° E daylight
21 Jan - 14:20:12 10° WSW 14:24:55 76° SSE 14:29:42 10° ENE daylight
21 Jan - 16:02:36 10° W 16:07:19 60° N 16:12:04 10° ENE daylight
21 Jan - 17:45:04 10° WNW 17:49:52 75° NNE 17:54:42 10° ESE visible
21 Jan - 19:27:27 10° WNW 19:31:57 41° SW 19:36:28 10° SE visible
22 Jan - 13:04:33 10° SW 13:08:57 41° SE 13:13:25 10° ENE daylight
22 Jan - 14:46:17 10° WSW 14:51:01 74° NNW 14:55:49 10° ENE daylight
22 Jan - 16:28:51 10° WNW 16:33:35 60° N 16:38:20 10° E daylight
22 Jan - 18:11:11 10° WNW 18:15:58 76° SSW 18:20:46 10° ESE visible
22 Jan - 19:54:02 10° W 19:57:41 22° SW 20:01:20 10° S visible
23 Jan - 11:49:52 10° S 11:53:14 20° SE 11:56:38 10° E daylight
23 Jan - 13:30:11 10° WSW 13:34:52 72° SSE 13:39:37 10° ENE daylight
23 Jan - 15:12:32 10° W 15:17:14 60° N 15:21:59 10° ENE daylight
23 Jan - 16:55:01 10° WNW 16:59:48 72° NNE 17:04:36 10° E visible
23 Jan - 18:37:22 10° WNW 18:41:55 44° SSW 18:46:28 10° SE visible
24 Jan - 12:14:36 10° SSW 12:18:55 38° SE 12:23:19 10° ENE daylight
24 Jan - 13:56:14 10° WSW 14:00:57 77° NNW 14:05:44 10° ENE daylight
24 Jan - 15:38:48 10° WNW 15:43:30 59° N 15:48:15 10° E daylight
24 Jan - 17:21:07 10° WNW 17:25:54 79° SSW 17:30:43 10° ESE visible
24 Jan - 19:03:53 10° W 19:07:40 23° SW 19:11:27 10° S visible
25 Jan - 11:00:03 10° S 11:03:14 18° SE 11:06:26 10° E daylight
25 Jan - 12:40:10 10° SW 12:44:49 68° SSE 12:49:33 10° ENE daylight
25 Jan - 14:22:28 10° W 14:27:09 61° N 14:31:54 10° ENE daylight
25 Jan - 16:04:58 10° WNW 16:09:43 70° NNE 16:14:31 10° E daylight
25 Jan - 17:47:17 10° WNW 17:51:52 46° SSW 17:56:28 10° SE visible
25 Jan - 19:32:00 10° WSW 19:33:13 11° SW 19:34:28 10° SW visible
26 Jan - 11:24:39 10° SSW 11:28:54 35° SE 11:33:12 10° ENE daylight
26 Jan - 13:06:11 10° WSW 13:10:53 79° NNW 13:15:39 10° ENE daylight
26 Jan - 14:48:44 10° WNW 14:53:25 59° N 14:58:09 10° E daylight
26 Jan - 16:31:04 10° WNW 16:35:51 83° SSW 16:40:39 10° ESE daylight
26 Jan - 18:13:46 10° W 18:17:39 25° SW 18:21:32 10° SSE visible
27 Jan - 10:10:16 10° S 10:13:14 17° SE 10:16:13 10° E daylight
27 Jan - 11:50:09 10° SW 11:54:47 65° SSE 11:59:28 10° ENE daylight
27 Jan - 13:32:24 10° W 13:37:05 62° N 13:41:49 10° ENE daylight
27 Jan - 15:14:55 10° WNW 15:19:39 68° NNE 15:24:26 10° E daylight
27 Jan - 16:57:13 10° WNW 17:01:50 49° SSW 17:06:27 10° SE visible
27 Jan - 18:41:27 10° WSW 18:43:13 12° SW 18:45:00 10° SSW visible
28 Jan - 10:34:43 10° SSW 10:38:53 33° SE 10:43:06 10° E daylight
28 Jan - 12:16:08 10° WSW 12:20:50 82° NNW 12:25:35 10° ENE daylight
28 Jan - 13:58:40 10° WNW 14:03:20 58° N 14:08:03 10° E daylight
28 Jan - 15:41:01 10° WNW 15:45:47 86° SSW 15:50:35 10° ESE daylight
28 Jan - 17:23:38 10° W 17:27:37 27° SW 17:31:37 10° SSE visible
